Year,Month,Day,Hour,Minute,Value (Times are PST for temperature in C)
2018,05,27,00,00,11.40
2018,05,27,00,01,11.40
2018,05,27,00,02,11.40
2018,05,27,00,03,11.40
2018,05,27,00,04,11.40
2018,05,27,00,05,11.40
2018,05,27,00,06,11.40
2018,05,27,00,07,11.40
2018,05,27,00,08,11.40
2018,05,27,00,09,11.40
2018,05,27,00,10,11.40
2018,05,27,00,11,11.40
2018,05,27,00,12,11.40
2018,05,27,00,13,11.40
2018,05,27,00,14,11.40
2018,05,27,00,15,11.40
2018,05,27,00,16,11.40
2018,05,27,00,17,11.40
2018,05,27,00,18,11.40
2018,05,27,00,19,11.40
2018,05,27,00,20,11.40
2018,05,27,00,21,11.40
2018,05,27,00,22,11.40
2018,05,27,00,23,11.40
2018,05,27,00,24,11.40
2018,05,27,00,25,11.40
2018,05,27,00,26,11.50
2018,05,27,00,27,11.50
2018,05,27,00,28,11.50
2018,05,27,00,29,11.50
2018,05,27,00,30,11.50
2018,05,27,00,31,11.50
2018,05,27,00,32,11.50
2018,05,27,00,33,11.50
2018,05,27,00,34,11.50
2018,05,27,00,35,11.50
2018,05,27,00,36,11.50
2018,05,27,00,37,11.50
2018,05,27,00,38,11.50
2018,05,27,00,39,11.50
2018,05,27,00,40,11.50
2018,05,27,00,41,11.50
2018,05,27,00,42,11.50
2018,05,27,00,43,11.50
2018,05,27,00,44,11.50
2018,05,27,00,45,11.50
2018,05,27,00,46,11.50
2018,05,27,00,47,11.50
2018,05,27,00,48,11.50
2018,05,27,00,49,11.50
2018,05,27,00,50,11.50
2018,05,27,00,51,11.50
2018,05,27,00,52,11.50
2018,05,27,00,53,11.50
2018,05,27,00,54,11.50
2018,05,27,00,55,11.50
2018,05,27,00,56,11.50
2018,05,27,00,57,11.50
2018,05,27,00,58,11.40
2018,05,27,00,59,11.40
2018,05,27,01,00,11.40
2018,05,27,01,01,11.40
2018,05,27,01,02,11.40
2018,05,27,01,03,11.40
2018,05,27,01,04,11.40
2018,05,27,01,05,11.40
2018,05,27,01,06,11.40
2018,05,27,01,07,11.40
2018,05,27,01,08,11.40
2018,05,27,01,09,11.40
2018,05,27,01,10,11.40
2018,05,27,01,11,11.40
2018,05,27,01,12,11.30
2018,05,27,01,13,11.30
2018,05,27,01,14,11.30
2018,05,27,01,15,11.30
2018,05,27,01,16,11.30
2018,05,27,01,17,11.30
2018,05,27,01,18,11.30
2018,05,27,01,19,11.30
2018,05,27,01,20,11.30
2018,05,27,01,21,11.30
2018,05,27,01,22,11.30
2018,05,27,01,23,11.30
2018,05,27,01,24,11.30
2018,05,27,01,25,11.30
2018,05,27,01,26,11.30
2018,05,27,01,27,11.30
2018,05,27,01,28,11.30
2018,05,27,01,29,11.30
2018,05,27,01,30,11.30
2018,05,27,01,31,11.30
2018,05,27,01,32,11.30
2018,05,27,01,33,11.20
2018,05,27,01,34,11.20
2018,05,27,01,35,11.20
2018,05,27,01,36,11.20
2018,05,27,01,37,11.20
2018,05,27,01,38,11.20
2018,05,27,01,39,11.20
2018,05,27,01,40,11.20
2018,05,27,01,41,11.20
2018,05,27,01,42,11.20
2018,05,27,01,43,11.20
2018,05,27,01,44,11.20
2018,05,27,01,45,11.20
2018,05,27,01,46,11.20
2018,05,27,01,47,11.20
2018,05,27,01,48,11.20
2018,05,27,01,49,11.20
2018,05,27,01,50,11.20
2018,05,27,01,51,11.10
2018,05,27,01,52,11.10
2018,05,27,01,53,11.10
2018,05,27,01,54,11.10
2018,05,27,01,55,11.10
2018,05,27,01,56,11.10
2018,05,27,01,57,11.00
2018,05,27,01,58,11.00
2018,05,27,01,59,11.00
2018,05,27,02,00,11.00
2018,05,27,02,01,10.90
2018,05,27,02,02,10.90
2018,05,27,02,03,10.90
2018,05,27,02,04,10.90
2018,05,27,02,05,10.90
2018,05,27,02,06,10.90
2018,05,27,02,07,10.90
2018,05,27,02,08,10.90
2018,05,27,02,09,10.90
2018,05,27,02,10,10.80
2018,05,27,02,11,10.80
2018,05,27,02,12,10.80
2018,05,27,02,13,10.80
2018,05,27,02,14,10.80
2018,05,27,02,15,10.80
2018,05,27,02,16,10.80
2018,05,27,02,17,10.80
2018,05,27,02,18,10.80
2018,05,27,02,19,10.80
2018,05,27,02,20,10.80
2018,05,27,02,21,10.70
2018,05,27,02,22,10.70
2018,05,27,02,23,10.70
2018,05,27,02,24,10.70
2018,05,27,02,25,10.70
2018,05,27,02,26,10.70
2018,05,27,02,27,10.70
2018,05,27,02,28,10.70
2018,05,27,02,29,10.70
2018,05,27,02,30,10.70
2018,05,27,02,31,10.70
2018,05,27,02,32,10.60
2018,05,27,02,33,10.60
2018,05,27,02,34,10.60
2018,05,27,02,35,10.60
2018,05,27,02,36,10.60
2018,05,27,02,37,10.60
2018,05,27,02,38,10.60
2018,05,27,02,39,10.50
2018,05,27,02,40,10.50
2018,05,27,02,41,10.50
2018,05,27,02,42,10.50
2018,05,27,02,43,10.50
2018,05,27,02,44,10.50
2018,05,27,02,45,10.50
2018,05,27,02,46,10.40
2018,05,27,02,47,10.40
2018,05,27,02,48,10.40
2018,05,27,02,49,10.40
2018,05,27,02,50,10.40
2018,05,27,02,51,10.40
2018,05,27,02,52,10.40
2018,05,27,02,53,10.40
2018,05,27,02,54,10.40
2018,05,27,02,55,10.30
2018,05,27,02,56,10.30
2018,05,27,02,57,10.30
2018,05,27,02,58,10.30
2018,05,27,02,59,10.30
2018,05,27,03,00,10.30
2018,05,27,03,01,10.30
2018,05,27,03,02,10.30
2018,05,27,03,03,10.20
2018,05,27,03,04,10.20
2018,05,27,03,05,10.20
2018,05,27,03,06,10.20
2018,05,27,03,07,10.20
2018,05,27,03,08,10.20
2018,05,27,03,09,10.20
2018,05,27,03,10,10.20
2018,05,27,03,11,10.20
2018,05,27,03,12,10.20
2018,05,27,03,13,10.20
2018,05,27,03,14,10.20
2018,05,27,03,15,10.20
2018,05,27,03,16,10.20
2018,05,27,03,17,10.20
2018,05,27,03,18,10.10
2018,05,27,03,19,10.10
2018,05,27,03,20,10.10
2018,05,27,03,21,10.10
2018,05,27,03,22,10.10
2018,05,27,03,23,10.10
2018,05,27,03,24,10.10
2018,05,27,03,25,10.00
2018,05,27,03,26,10.00
2018,05,27,03,27,10.00
2018,05,27,03,28,10.00
2018,05,27,03,29,9.90
2018,05,27,03,30,9.90
2018,05,27,03,31,9.90
2018,05,27,03,32,9.90
2018,05,27,03,33,9.90
2018,05,27,03,34,9.90
2018,05,27,03,35,9.80
2018,05,27,03,36,9.80
2018,05,27,03,37,9.80
2018,05,27,03,38,9.80
2018,05,27,03,39,9.80
2018,05,27,03,40,9.80
2018,05,27,03,41,9.80
2018,05,27,03,42,9.80
2018,05,27,03,43,9.70
2018,05,27,03,44,9.70
2018,05,27,03,45,9.70
2018,05,27,03,46,9.70
2018,05,27,03,47,9.70
2018,05,27,03,48,9.70
2018,05,27,03,49,9.70
2018,05,27,03,50,9.70
2018,05,27,03,51,9.70
2018,05,27,03,52,9.70
2018,05,27,03,53,9.70
2018,05,27,03,54,9.70
2018,05,27,03,55,9.70
2018,05,27,03,56,9.70
2018,05,27,03,57,9.70
2018,05,27,03,58,9.70
2018,05,27,03,59,9.70
2018,05,27,04,00,9.70
2018,05,27,04,01,9.70
2018,05,27,04,02,9.70
2018,05,27,04,03,9.70
2018,05,27,05,04,9.70
2018,05,27,05,05,9.70
2018,05,27,05,06,9.70
2018,05,27,05,07,9.80
2018,05,27,05,08,9.80
2018,05,27,05,09,9.80
2018,05,27,05,10,9.80
2018,05,27,05,11,9.80
2018,05,27,05,12,9.80
2018,05,27,05,13,9.80
2018,05,27,05,14,9.80
2018,05,27,05,15,9.80
2018,05,27,05,16,9.80
2018,05,27,05,17,9.80
2018,05,27,05,18,9.80
2018,05,27,05,19,9.80
2018,05,27,05,20,9.80
2018,05,27,05,21,9.80
2018,05,27,05,22,9.80
2018,05,27,05,23,9.80
2018,05,27,05,24,9.80
2018,05,27,05,25,9.80
2018,05,27,05,26,9.80
2018,05,27,05,27,9.80
2018,05,27,05,28,9.80
2018,05,27,05,29,9.80
2018,05,27,05,30,9.80
2018,05,27,05,31,9.80
2018,05,27,05,32,9.80
2018,05,27,05,33,9.80
2018,05,27,05,34,9.80
2018,05,27,05,35,9.80
2018,05,27,05,36,9.80
2018,05,27,05,37,9.80
2018,05,27,05,38,9.80
2018,05,27,05,39,9.80
2018,05,27,05,40,9.80
2018,05,27,05,41,9.80
2018,05,27,05,42,9.80
2018,05,27,05,43,9.80
2018,05,27,05,44,9.80
2018,05,27,05,45,9.80
2018,05,27,05,46,9.80
2018,05,27,05,47,9.80
2018,05,27,05,48,9.80
2018,05,27,05,49,9.80
2018,05,27,05,50,9.90
2018,05,27,05,51,9.90
2018,05,27,05,52,9.90
2018,05,27,05,53,9.90
2018,05,27,05,54,9.90
2018,05,27,05,55,9.90
2018,05,27,05,56,9.90
2018,05,27,05,57,9.90
2018,05,27,05,58,9.90
2018,05,27,05,59,9.90
2018,05,27,06,00,9.90
2018,05,27,06,01,9.90
2018,05,27,06,02,9.90
2018,05,27,06,03,9.90
2018,05,27,06,04,10.00
2018,05,27,06,05,10.00
2018,05,27,06,06,10.00
2018,05,27,06,07,10.00
2018,05,27,06,08,10.00
2018,05,27,06,09,10.10
2018,05,27,06,10,10.10
2018,05,27,06,11,10.10
2018,05,27,06,12,10.10
2018,05,27,06,13,10.10
2018,05,27,06,14,10.10
2018,05,27,06,15,10.10
2018,05,27,06,16,10.10
2018,05,27,06,17,10.10
2018,05,27,06,18,10.10
2018,05,27,06,19,10.10
2018,05,27,06,20,10.10
2018,05,27,06,21,10.20
2018,05,27,06,22,10.20
2018,05,27,06,23,10.20
2018,05,27,06,24,10.20
2018,05,27,06,25,10.20
2018,05,27,06,26,10.20
2018,05,27,06,27,10.30
2018,05,27,06,28,10.30
2018,05,27,06,29,10.30
2018,05,27,06,30,10.30
2018,05,27,06,31,10.30
2018,05,27,06,32,10.30
2018,05,27,06,33,10.40
2018,05,27,06,34,10.40
2018,05,27,06,35,10.40
2018,05,27,06,36,10.40
2018,05,27,06,37,10.40
2018,05,27,06,38,10.40
2018,05,27,06,39,10.50
2018,05,27,06,40,10.50
2018,05,27,06,41,10.50
2018,05,27,06,42,10.50
2018,05,27,06,43,10.60
2018,05,27,06,44,10.60
2018,05,27,06,45,10.60
2018,05,27,06,46,10.60
2018,05,27,06,47,10.70
2018,05,27,06,48,10.70
2018,05,27,06,49,10.70
2018,05,27,06,50,10.70
2018,05,27,06,51,10.80
2018,05,27,06,52,10.80
2018,05,27,06,53,10.80
2018,05,27,06,54,10.80
2018,05,27,06,55,10.90
2018,05,27,06,56,10.90
2018,05,27,06,57,10.90
2018,05,27,06,58,10.90
2018,05,27,06,59,10.90
2018,05,27,07,00,11.00
2018,05,27,07,01,11.00
2018,05,27,07,02,11.10
2018,05,27,07,03,11.10
2018,05,27,07,04,11.10
2018,05,27,07,05,11.10
2018,05,27,07,06,11.10
2018,05,27,07,07,11.20
2018,05,27,07,08,11.20
2018,05,27,07,09,11.20
2018,05,27,07,10,11.30
2018,05,27,07,11,11.30
2018,05,27,07,12,11.40
2018,05,27,07,13,11.40
2018,05,27,07,14,11.50
2018,05,27,07,15,11.60
2018,05,27,07,16,11.60
2018,05,27,07,17,11.70
2018,05,27,07,18,11.80
2018,05,27,07,19,11.80
2018,05,27,07,20,11.90
2018,05,27,07,21,12.00
2018,05,27,07,22,12.00
2018,05,27,07,23,12.10
2018,05,27,07,24,12.20
2018,05,27,07,25,12.30
2018,05,27,07,26,12.30
2018,05,27,07,27,12.40
2018,05,27,07,28,12.50
2018,05,27,07,29,12.50
2018,05,27,07,30,12.60
2018,05,27,07,31,12.70
2018,05,27,07,32,12.70
2018,05,27,07,33,12.80
2018,05,27,07,34,12.90
2018,05,27,07,35,12.90
2018,05,27,07,36,13.00
2018,05,27,07,37,13.00
2018,05,27,07,38,13.10
2018,05,27,07,39,13.10
2018,05,27,07,40,13.20
2018,05,27,07,41,13.20
2018,05,27,07,42,13.20
2018,05,27,07,43,13.30
2018,05,27,07,44,13.30
2018,05,27,07,45,13.30
2018,05,27,07,46,13.40
2018,05,27,07,47,13.40
2018,05,27,07,48,13.40
2018,05,27,07,49,13.40
2018,05,27,07,50,13.50
2018,05,27,07,51,13.50
2018,05,27,07,52,13.50
2018,05,27,07,53,13.60
2018,05,27,07,54,13.60
2018,05,27,07,55,13.70
2018,05,27,07,56,13.80
2018,05,27,07,57,13.80
2018,05,27,07,58,13.90
2018,05,27,07,59,14.00
2018,05,27,08,00,14.00
2018,05,27,08,01,14.10
2018,05,27,08,02,14.20
2018,05,27,08,03,14.20
2018,05,27,08,04,14.20
2018,05,27,08,05,14.20
2018,05,27,08,06,14.20
2018,05,27,08,07,14.20
2018,05,27,08,08,14.20
2018,05,27,08,09,14.20
2018,05,27,08,10,14.20
2018,05,27,08,11,14.20
2018,05,27,08,12,14.20
2018,05,27,08,13,14.20
2018,05,27,08,14,14.10
2018,05,27,08,15,14.10
2018,05,27,08,16,14.10
2018,05,27,08,17,14.10
2018,05,27,08,18,14.10
2018,05,27,08,19,14.10
2018,05,27,08,20,14.10
2018,05,27,08,21,14.10
2018,05,27,08,22,14.10
2018,05,27,08,23,14.20
2018,05,27,08,24,14.20
2018,05,27,08,25,14.30
2018,05,27,08,26,14.40
2018,05,27,08,27,14.50
2018,05,27,08,28,14.50
2018,05,27,08,29,14.60
2018,05,27,08,30,14.60
2018,05,27,08,31,14.60
2018,05,27,08,32,14.70
2018,05,27,08,33,14.80
2018,05,27,08,34,14.90
2018,05,27,08,35,15.00
2018,05,27,08,36,15.00
2018,05,27,08,37,15.10
2018,05,27,08,38,15.10
2018,05,27,08,39,15.00
2018,05,27,08,40,15.00
2018,05,27,08,41,15.10
2018,05,27,08,42,15.10
2018,05,27,08,43,15.10
2018,05,27,08,44,15.10
2018,05,27,08,45,15.10
2018,05,27,08,46,15.10
2018,05,27,08,47,15.10
2018,05,27,08,48,15.10
2018,05,27,08,49,15.20
2018,05,27,08,50,15.20
2018,05,27,08,51,15.30
2018,05,27,08,52,15.30
2018,05,27,08,53,15.30
2018,05,27,08,54,15.30
2018,05,27,08,55,15.20
2018,05,27,08,56,15.30
2018,05,27,08,57,15.30
2018,05,27,08,58,15.30
2018,05,27,08,59,15.30
2018,05,27,09,00,15.30
2018,05,27,09,01,15.30
2018,05,27,09,02,15.20
2018,05,27,09,03,15.20
2018,05,27,09,04,15.10
2018,05,27,09,05,15.10
2018,05,27,09,06,15.00
2018,05,27,09,07,15.00
2018,05,27,09,08,15.00
2018,05,27,09,09,15.00
2018,05,27,09,10,14.90
2018,05,27,09,11,14.90
2018,05,27,09,12,14.90
2018,05,27,09,13,15.00
2018,05,27,09,14,15.00
2018,05,27,09,15,15.10
2018,05,27,09,16,15.20
2018,05,27,09,17,15.20
2018,05,27,09,18,15.20
2018,05,27,09,19,15.30
2018,05,27,09,20,15.30
2018,05,27,09,21,15.30
2018,05,27,09,22,15.30
2018,05,27,09,23,15.20
2018,05,27,09,24,15.10
2018,05,27,09,25,15.10
2018,05,27,09,26,15.10
2018,05,27,09,27,15.10
2018,05,27,09,28,15.10
2018,05,27,09,29,15.10
2018,05,27,09,30,15.10
2018,05,27,09,31,15.20
2018,05,27,09,32,15.30
2018,05,27,09,33,15.30
2018,05,27,09,34,15.40
2018,05,27,09,35,15.40
2018,05,27,09,36,15.50
2018,05,27,09,37,15.60
2018,05,27,09,38,15.60
2018,05,27,09,39,15.70
2018,05,27,09,40,15.80
2018,05,27,09,41,15.90
2018,05,27,09,42,15.90
2018,05,27,09,43,15.90
2018,05,27,09,44,15.90
2018,05,27,09,45,15.90
2018,05,27,09,46,15.90
2018,05,27,09,47,15.90
2018,05,27,09,48,15.90
2018,05,27,09,49,16.00
2018,05,27,09,50,16.00
2018,05,27,09,51,16.10
2018,05,27,09,52,16.20
2018,05,27,09,53,16.30
2018,05,27,09,54,16.30
2018,05,27,09,55,16.40
2018,05,27,09,56,16.40
2018,05,27,09,57,16.40
2018,05,27,09,58,16.40
2018,05,27,09,59,16.40
2018,05,27,10,00,16.40
2018,05,27,10,01,16.40
2018,05,27,10,02,16.40
2018,05,27,10,03,16.40
2018,05,27,10,04,16.30
2018,05,27,10,05,16.30
2018,05,27,10,06,16.20
2018,05,27,10,07,16.20
2018,05,27,10,08,16.20
2018,05,27,10,09,16.10
2018,05,27,10,10,16.10
2018,05,27,10,11,16.10
2018,05,27,10,12,16.20
2018,05,27,10,13,16.20
2018,05,27,10,14,16.30
2018,05,27,10,15,16.30
2018,05,27,10,16,16.30
2018,05,27,10,17,16.40
2018,05,27,10,18,16.30
2018,05,27,10,19,16.20
2018,05,27,10,20,16.20
2018,05,27,10,21,16.20
2018,05,27,10,22,16.30
2018,05,27,10,23,16.30
2018,05,27,10,24,16.30
2018,05,27,10,25,16.30
2018,05,27,10,26,16.30
2018,05,27,10,27,16.30
2018,05,27,10,28,16.40
2018,05,27,10,29,16.40
2018,05,27,10,30,16.50
2018,05,27,10,31,16.70
2018,05,27,10,32,16.80
2018,05,27,10,33,16.90
2018,05,27,10,34,16.90
2018,05,27,10,35,16.90
2018,05,27,10,36,17.00
2018,05,27,10,37,17.00
2018,05,27,10,38,17.10
2018,05,27,10,39,17.10
2018,05,27,10,40,17.20
2018,05,27,10,41,17.30
2018,05,27,10,42,17.40
2018,05,27,10,43,17.50
2018,05,27,10,44,17.50
2018,05,27,10,45,17.50
2018,05,27,10,46,17.40
2018,05,27,10,47,17.40
2018,05,27,10,48,17.50
2018,05,27,10,49,17.50
2018,05,27,10,50,17.60
2018,05,27,10,51,17.60
2018,05,27,10,52,17.70
2018,05,27,10,53,17.80
2018,05,27,10,54,17.90
2018,05,27,10,55,18.00
2018,05,27,10,56,18.10
2018,05,27,10,57,18.10
2018,05,27,10,58,18.20
2018,05,27,10,59,18.20
2018,05,27,11,00,18.30
2018,05,27,11,01,18.30
2018,05,27,11,02,18.30
2018,05,27,11,03,18.30
2018,05,27,11,04,18.30
2018,05,27,11,05,18.30
2018,05,27,11,06,18.30
2018,05,27,11,07,18.20
2018,05,27,11,08,18.20
2018,05,27,11,09,18.20
2018,05,27,11,10,18.20
2018,05,27,11,11,18.20
2018,05,27,11,12,18.30
2018,05,27,11,13,18.30
2018,05,27,11,14,18.50
2018,05,27,11,15,18.50
2018,05,27,11,16,18.60
2018,05,27,11,17,18.60
2018,05,27,11,18,18.60
2018,05,27,11,19,18.60
2018,05,27,11,20,18.50
2018,05,27,11,21,18.50
2018,05,27,11,22,18.50
2018,05,27,11,23,18.60
2018,05,27,11,24,18.70
2018,05,27,11,25,18.80
2018,05,27,11,26,18.90
2018,05,27,11,27,19.00
2018,05,27,11,28,19.00
2018,05,27,11,29,19.00
2018,05,27,11,30,19.00
2018,05,27,11,31,18.90
2018,05,27,11,32,18.90
2018,05,27,11,33,18.80
2018,05,27,11,34,18.80
2018,05,27,11,35,18.70
2018,05,27,11,36,18.60
2018,05,27,11,37,18.50
2018,05,27,11,38,18.30
2018,05,27,11,39,18.20
2018,05,27,11,40,18.20
2018,05,27,11,41,18.20
2018,05,27,11,42,18.20
2018,05,27,11,43,18.20
2018,05,27,11,44,18.20
2018,05,27,11,45,18.30
2018,05,27,11,46,18.30
2018,05,27,11,47,18.40
2018,05,27,11,48,18.50
2018,05,27,11,49,18.60
2018,05,27,11,50,18.70
2018,05,27,11,51,18.70
2018,05,27,11,52,18.70
2018,05,27,11,53,18.70
2018,05,27,11,54,18.70
2018,05,27,11,55,18.70
2018,05,27,11,56,18.80
2018,05,27,11,57,18.90
2018,05,27,11,58,19.00
2018,05,27,11,59,19.10
2018,05,27,12,00,19.20
2018,05,27,12,01,19.30
2018,05,27,12,02,19.30
2018,05,27,12,03,19.30
2018,05,27,12,04,19.30
2018,05,27,12,05,19.30
2018,05,27,12,06,19.30
2018,05,27,12,07,19.20
2018,05,27,12,08,19.20
2018,05,27,12,09,19.20
2018,05,27,12,10,19.30
2018,05,27,12,11,19.30
2018,05,27,12,12,19.30
2018,05,27,12,13,19.40
2018,05,27,12,14,19.50
2018,05,27,12,15,19.50
2018,05,27,12,16,19.50
2018,05,27,12,17,19.40
2018,05,27,12,18,19.40
2018,05,27,12,19,19.30
2018,05,27,12,20,19.30
2018,05,27,12,21,19.30
2018,05,27,12,22,19.30
2018,05,27,12,23,19.30
2018,05,27,12,24,19.20
2018,05,27,12,25,19.20
2018,05,27,12,26,19.20
2018,05,27,12,27,19.20
2018,05,27,12,28,19.20
2018,05,27,12,29,19.20
2018,05,27,12,30,19.30
2018,05,27,12,31,19.20
2018,05,27,12,32,19.20
2018,05,27,12,33,19.20
2018,05,27,12,34,19.10
2018,05,27,12,35,19.10
2018,05,27,12,36,19.20
2018,05,27,12,37,19.20
2018,05,27,12,38,19.30
2018,05,27,12,39,19.40
2018,05,27,12,40,19.50
2018,05,27,12,41,19.50
2018,05,27,12,42,19.60
2018,05,27,12,43,19.70
2018,05,27,12,44,19.80
2018,05,27,12,45,19.80
2018,05,27,12,46,19.90
2018,05,27,12,47,19.90
2018,05,27,12,48,19.90
2018,05,27,12,49,19.90
2018,05,27,12,50,19.90
2018,05,27,12,51,20.00
2018,05,27,12,52,19.90
2018,05,27,12,53,19.90
2018,05,27,12,54,19.90
2018,05,27,12,55,19.80
2018,05,27,12,56,19.80
2018,05,27,12,57,19.80
2018,05,27,12,58,19.70
2018,05,27,12,59,19.70
2018,05,27,13,00,19.60
2018,05,27,13,01,19.60
2018,05,27,13,02,19.60
2018,05,27,13,03,19.60
2018,05,27,13,04,19.60
2018,05,27,13,05,19.70
2018,05,27,13,06,19.70
2018,05,27,13,07,19.70
2018,05,27,13,08,19.80
2018,05,27,13,09,19.80
2018,05,27,13,10,19.80
2018,05,27,13,11,19.90
2018,05,27,13,12,19.90
2018,05,27,13,13,20.00
2018,05,27,13,14,20.10
2018,05,27,13,15,20.20
2018,05,27,13,16,20.20
2018,05,27,13,17,20.30
2018,05,27,13,18,20.40
2018,05,27,13,19,20.40
2018,05,27,13,20,20.50
2018,05,27,13,21,20.50
2018,05,27,13,22,20.60
2018,05,27,13,23,20.70
2018,05,27,13,24,20.80
2018,05,27,13,25,20.80
2018,05,27,13,26,20.90
2018,05,27,13,27,20.90
2018,05,27,13,28,21.00
2018,05,27,13,29,21.00
2018,05,27,13,30,21.00
2018,05,27,13,31,21.10
2018,05,27,13,32,21.10
2018,05,27,13,33,21.20
2018,05,27,13,34,21.20
2018,05,27,13,35,21.30
2018,05,27,13,36,21.30
2018,05,27,13,37,21.20
2018,05,27,13,38,21.20
2018,05,27,13,39,21.20
2018,05,27,13,40,21.20
2018,05,27,13,41,21.30
2018,05,27,13,42,21.30
2018,05,27,13,43,21.40
2018,05,27,13,44,21.40
2018,05,27,13,45,21.40
2018,05,27,13,46,21.40
2018,05,27,13,47,21.40
2018,05,27,13,48,21.40
2018,05,27,13,49,21.30
2018,05,27,13,50,21.30
2018,05,27,13,51,21.30
2018,05,27,13,52,21.30
2018,05,27,13,53,21.40
2018,05,27,13,54,21.50
2018,05,27,13,55,21.50
2018,05,27,13,56,21.60
2018,05,27,13,57,21.60
2018,05,27,13,58,21.70
2018,05,27,13,59,21.70
2018,05,27,14,00,21.80
2018,05,27,14,01,21.80
2018,05,27,14,02,21.80
2018,05,27,14,03,21.80
2018,05,27,14,04,21.80
2018,05,27,14,05,21.80
2018,05,27,14,06,21.80
2018,05,27,14,07,21.80
2018,05,27,14,08,21.90
2018,05,27,14,09,22.00
2018,05,27,14,10,22.10
2018,05,27,14,11,22.10
2018,05,27,14,12,22.10
2018,05,27,14,13,22.20
2018,05,27,14,14,22.20
2018,05,27,14,15,22.20
2018,05,27,14,16,22.20
2018,05,27,14,17,22.20
2018,05,27,14,18,22.10
2018,05,27,14,19,22.10
2018,05,27,14,20,22.00
2018,05,27,14,21,21.90
2018,05,27,14,22,22.00
2018,05,27,14,23,22.00
2018,05,27,14,24,22.00
2018,05,27,14,25,22.00
2018,05,27,14,26,21.90
2018,05,27,14,27,21.80
2018,05,27,14,28,21.80
2018,05,27,14,29,21.80
2018,05,27,14,30,21.80
2018,05,27,14,31,21.80
2018,05,27,14,32,21.80
2018,05,27,14,33,21.80
2018,05,27,14,34,21.80
2018,05,27,14,35,21.70
2018,05,27,14,36,21.60
2018,05,27,14,37,21.50
2018,05,27,14,38,21.50
2018,05,27,14,39,21.40
2018,05,27,14,40,21.40
2018,05,27,14,41,21.30
2018,05,27,14,42,21.30
2018,05,27,14,43,21.40
2018,05,27,14,44,21.40
2018,05,27,14,45,21.50
2018,05,27,14,46,21.60
2018,05,27,14,47,21.70
2018,05,27,14,48,21.70
2018,05,27,14,49,21.80
2018,05,27,14,50,21.80
2018,05,27,14,51,21.80
2018,05,27,14,52,21.70
2018,05,27,14,53,21.70
2018,05,27,14,54,21.70
2018,05,27,14,55,21.60
2018,05,27,14,56,21.60
2018,05,27,14,57,21.50
2018,05,27,14,58,21.50
2018,05,27,14,59,21.40
2018,05,27,15,00,21.40
2018,05,27,15,01,21.50
2018,05,27,15,02,21.50
2018,05,27,15,03,21.50
2018,05,27,15,04,21.50
2018,05,27,15,05,21.60
2018,05,27,15,06,21.50
2018,05,27,15,07,21.50
2018,05,27,15,08,21.40
2018,05,27,15,09,21.40
2018,05,27,15,10,21.30
2018,05,27,15,11,21.30
2018,05,27,15,12,21.30
2018,05,27,15,13,21.30
2018,05,27,15,14,21.30
2018,05,27,15,15,21.30
2018,05,27,15,16,21.30
2018,05,27,15,17,21.30
2018,05,27,15,18,21.30
2018,05,27,15,19,21.30
2018,05,27,15,20,21.30
2018,05,27,15,21,21.30
2018,05,27,15,22,21.20
2018,05,27,15,23,21.20
2018,05,27,15,24,21.30
2018,05,27,15,25,21.30
2018,05,27,15,26,21.20
2018,05,27,15,27,21.30
2018,05,27,15,28,21.30
2018,05,27,15,29,21.30
2018,05,27,15,30,21.30
2018,05,27,15,31,21.30
2018,05,27,15,32,21.40
2018,05,27,15,33,21.40
2018,05,27,15,34,21.40
2018,05,27,15,35,21.50
2018,05,27,15,36,21.60
2018,05,27,15,37,21.60
2018,05,27,15,38,21.50
2018,05,27,15,39,21.50
2018,05,27,15,40,21.50
2018,05,27,15,41,21.50
2018,05,27,15,42,21.50
2018,05,27,15,43,21.40
2018,05,27,15,44,21.40
2018,05,27,15,45,21.40
2018,05,27,15,46,21.40
2018,05,27,15,47,21.30
2018,05,27,15,48,21.20
2018,05,27,15,49,21.20
2018,05,27,15,50,21.20
2018,05,27,15,51,21.20
2018,05,27,15,52,21.30
2018,05,27,15,53,21.30
2018,05,27,15,54,21.40
2018,05,27,15,55,21.40
2018,05,27,15,56,21.40
2018,05,27,15,57,21.40
2018,05,27,15,58,21.40
2018,05,27,15,59,21.30
2018,05,27,16,00,21.30
2018,05,27,16,01,21.30
2018,05,27,16,02,21.30
2018,05,27,16,03,21.30
2018,05,27,16,04,21.30
2018,05,27,16,05,21.40
2018,05,27,16,06,21.40
2018,05,27,16,07,21.50
2018,05,27,16,08,21.50
2018,05,27,16,09,21.40
2018,05,27,16,10,21.30
2018,05,27,16,11,21.20
2018,05,27,16,12,21.10
2018,05,27,16,13,21.10
2018,05,27,16,14,21.00
2018,05,27,16,15,20.90
2018,05,27,16,16,20.80
2018,05,27,16,17,20.80
2018,05,27,16,18,20.80
2018,05,27,16,19,20.80
2018,05,27,16,20,20.80
2018,05,27,16,21,20.90
2018,05,27,16,22,20.90
2018,05,27,16,23,21.00
2018,05,27,16,24,21.10
2018,05,27,16,25,21.10
2018,05,27,16,26,21.10
2018,05,27,16,27,21.10
2018,05,27,16,28,21.00
2018,05,27,16,29,20.90
2018,05,27,16,30,20.90
2018,05,27,16,31,20.90
2018,05,27,16,32,21.00
2018,05,27,16,33,21.00
2018,05,27,16,34,21.00
2018,05,27,16,35,21.10
2018,05,27,16,36,21.10
2018,05,27,16,37,21.20
2018,05,27,16,38,21.20
2018,05,27,16,39,21.10
2018,05,27,16,40,21.10
2018,05,27,16,41,21.10
2018,05,27,16,42,21.10
2018,05,27,16,43,21.10
2018,05,27,16,44,21.10
2018,05,27,16,45,21.10
2018,05,27,16,46,21.10
2018,05,27,16,47,21.00
2018,05,27,16,48,21.00
2018,05,27,16,49,21.00
2018,05,27,16,50,20.90
2018,05,27,16,51,20.90
2018,05,27,16,52,20.90
2018,05,27,16,53,20.90
2018,05,27,16,54,20.90
2018,05,27,16,55,20.90
2018,05,27,16,56,20.90
2018,05,27,16,57,20.90
2018,05,27,16,58,20.90
2018,05,27,16,59,20.90
2018,05,27,17,00,20.80
2018,05,27,17,01,20.80
2018,05,27,17,02,20.70
2018,05,27,17,03,20.60
2018,05,27,17,04,20.60
2018,05,27,17,05,20.60
2018,05,27,17,06,20.60
2018,05,27,17,07,20.70
2018,05,27,17,08,20.70
2018,05,27,17,09,20.70
2018,05,27,17,10,20.60
2018,05,27,17,11,20.50
2018,05,27,17,12,20.50
2018,05,27,17,13,20.40
2018,05,27,17,14,20.40
2018,05,27,17,15,20.40
2018,05,27,17,16,20.40
2018,05,27,17,17,20.40
2018,05,27,17,18,20.40
2018,05,27,17,19,20.40
2018,05,27,17,20,20.50
2018,05,27,17,21,20.50
2018,05,27,17,22,20.50
2018,05,27,17,23,20.60
2018,05,27,17,24,20.60
2018,05,27,17,25,20.60
2018,05,27,17,26,20.60
2018,05,27,17,27,20.50
2018,05,27,17,28,20.50
2018,05,27,17,29,20.40
2018,05,27,17,30,20.40
2018,05,27,17,31,20.40
2018,05,27,17,32,20.40
2018,05,27,17,33,20.40
2018,05,27,17,34,20.40
2018,05,27,17,35,20.40
2018,05,27,17,36,20.40
2018,05,27,17,37,20.50
2018,05,27,17,38,20.50
2018,05,27,17,39,20.50
2018,05,27,17,40,20.50
2018,05,27,17,41,20.60
2018,05,27,17,42,20.60
2018,05,27,17,43,20.60
2018,05,27,17,44,20.60
2018,05,27,17,45,20.60
2018,05,27,17,46,20.50
2018,05,27,17,47,20.50
2018,05,27,17,48,20.40
2018,05,27,17,49,20.40
2018,05,27,17,50,20.40
2018,05,27,17,51,20.30
2018,05,27,17,52,20.30
2018,05,27,17,53,20.30
2018,05,27,17,54,20.30
2018,05,27,17,55,20.30
2018,05,27,17,56,20.30
2018,05,27,17,57,20.40
2018,05,27,17,58,20.30
2018,05,27,17,59,20.30
2018,05,27,18,00,20.30
2018,05,27,18,01,20.30
2018,05,27,18,02,20.30
2018,05,27,18,03,20.30
2018,05,27,18,04,20.30
2018,05,27,18,05,20.30
2018,05,27,18,06,20.30
2018,05,27,18,07,20.20
2018,05,27,18,08,20.20
2018,05,27,18,09,20.10
2018,05,27,18,10,20.10
2018,05,27,18,11,20.10
2018,05,27,18,12,20.10
2018,05,27,18,13,20.00
2018,05,27,18,14,20.00
2018,05,27,18,15,20.00
2018,05,27,18,16,20.10
2018,05,27,18,17,20.10
2018,05,27,18,18,20.10
2018,05,27,18,19,20.10
2018,05,27,18,20,20.10
2018,05,27,18,21,20.10
2018,05,27,18,22,20.10
2018,05,27,18,23,20.20